Location: ???????
(60.5196°N, 46.4845°E)
Time: 05:05:14
(UTC+00:00)

Daily predictions for brighter satellites

Satellite Brightness Start Highest point End
(mag) Time Altitude Azimuth Time Altitude Azimuth Time Altitude Azimuth
ADEOS II 2.4 00:03:16 10° NNE 00:07:35 58° N 00:07:35 58° N
Cosmos 2360 4.4 00:10:42 43° NNW 00:12:34 68° NE 00:18:15 10° SE
Cosmos 1867 3.6 00:13:43 75° ESE 00:13:43 75° ESE 00:18:59 10° ENE
Tsikada Rocket 4.0 00:13:14 57° S 00:14:33 79° E 00:20:48 10° NNE
ARIANE 5 R/B 2.5 00:10:34 10° NNE 00:15:30 73° E 00:15:30 73° E
Cosmos 2219 Rocket 3.6 00:15:18 25° NNW 00:16:51 29° N 00:21:45 10° ENE
Resurs 1-4 Rocket 3.1 00:15:10 10° N 00:18:52 34° NNW 00:18:52 34° NNW
Cosmos 967 Rocket 4.3 00:20:38 63° WNW 00:21:47 87° SSW 00:28:06 10° SE
Cosmos 1816 Rocket 4.3 00:21:16 67° SSW 00:22:11 87° WNW 00:28:29 10° NNE
CZ-4B R/B 3.7 00:22:32 10° SE 00:24:02 21° ESE 00:24:02 21° ESE
CZ-2D R/B 3.9 00:22:04 10° NNE 00:26:07 65° ENE 00:26:07 65° ENE
Cosmos 2278 4.0 00:25:28 28° NNW 00:28:27 65° NE 00:34:04 10° SE
NPP 4.5 00:25:09 10° NNE 00:29:15 36° NNW 00:29:15 36° NNW
CZ-2D R/B 3.2 00:27:18 10° N 00:30:54 31° NNW 00:30:54 31° NNW
Cosmos 2322 Rocket 3.5 00:28:58 20° NNW 00:32:23 37° NNE 00:37:41 10° E
Cosmos 1975 Rocket 3.3 00:33:39 63° NNE 00:33:39 63° NNE 00:37:22 10° NNE
Cosmos 2346 Rocket 4.4 00:33:15 63° W 00:33:47 66° WNW 00:40:05 10° NNE
Cosmos 2142 Rocket 4.3 00:29:54 10° NNW 00:36:08 79° W 00:42:24 10° S
NOSS 3-2 (A) 4.4 00:37:05 26° S 00:39:52 41° SE 00:46:12 10° ENE
IRS-P3 4.0 00:36:59 10° NNE 00:42:17 66° WNW 00:42:26 65° WNW
CZ-2C R/B 3.4 00:38:43 10° NNE 00:43:37 45° E 00:48:20 10° S
CZ-2C R/B 3.0 00:44:22 10° NNE 00:48:27 71° ESE 00:48:36 70° SE
Cosmos 1302 Rocket 4.0 00:51:18 59° SW 00:51:18 59° SW 00:56:02 10° SSE
SWAS 4.4 00:51:17 85° ESE 00:51:17 85° ESE 00:55:33 10° NE
Spot 4 Rocket 3.9 00:46:16 10° NNE 00:51:27 89° WNW 00:52:51 50° SSW
Cosmos 2344 4.2 00:46:50 22° SSW 00:51:33 52° SE 00:59:45 10° ENE
Cosmos 2369 3.6 00:48:58 34° NW 00:51:34 82° SW 00:57:14 10° SSE
USA 234 3.4 00:45:12 10° E 00:51:41 61° SSE 00:53:54 41° SW
Cosmos 1300 4.1 00:48:50 10° N 00:52:27 38° ENE 00:56:03 10° SE
IDEFIX/ARIANE 42P 2.4 00:48:46 10° NNE 00:54:01 73° WNW 00:54:59 58° SW
Cosmos 1603 3.9 00:53:21 50° WNW 00:54:09 54° NW 00:59:42 10° NE
Cosmos 1607 4.3 00:51:41 35° NW 00:54:26 61° N 01:00:53 10° E
Cosmos 1048 Rocket 4.1 00:54:32 41° SSW 00:56:25 76° ESE 01:01:49 10° NE
GP-B 3.0 00:55:48 44° S 00:57:13 88° E 01:01:42 10° N
Meteor 1-16 Rocket 3.9 00:52:24 10° NNW 00:57:43 69° WSW 01:02:59 10° S
Lacrosse 4 Rocket 3.7 00:55:19 10° SSE 00:58:17 21° ESE 01:01:22 10° ENE
CZ-3B R/B 4.0 00:57:50 37° SW 00:59:42 43° SSW 01:19:42 10° SE
Cosmos 1680 Rocket 4.2 01:00:56 36° NW 01:01:16 36° NW 01:06:11 10° NNE
Cosmos 2279 Rocket 3.9 00:55:48 10° NNW 01:01:57 64° W 01:08:04 10° S
Cosmos 2228 3.6 00:58:00 10° N 01:02:19 59° ENE 01:06:39 10° SSE
Cosmos 1025 Rocket 3.2 01:00:31 32° S 01:02:29 71° E 01:06:54 10° NNE
Cosmos 1606 Rocket 4.1 00:59:14 10° N 01:03:40 59° ENE 01:08:06 10° SSE
Cosmos 494 Rocket 4.3 01:02:43 27° S 01:05:36 66° ESE 01:10:51 10° NE
Geosat 4.2 01:01:11 10° SSE 01:05:32 47° SW 01:05:32 47° SW
Cosmos 1634 Rocket 4.3 01:00:18 10° NNW 01:06:16 44° W 01:07:02 42° WSW
SL-16 R/B 3.0 01:02:51 15° NW 01:07:23 51° NE 01:12:55 10° ESE
Cosmos 1656 4.2 01:08:21 40° SW 01:08:21 40° SW 01:12:45 10° S
Cosmos 1674 3.5 01:06:44 17° SSE 01:09:29 51° E 01:13:12 10° NNE
ADEOS Rocket 2.8 01:05:03 10° S 01:10:25 55° W 01:16:04 10° NNW
COSMOS 2428 4.1 01:07:08 18° NW 01:10:32 31° N 01:15:37 10° ENE
Cosmos 1689 Rocket 3.5 01:08:12 10° SE 01:10:58 37° ENE 01:13:04 15° N
COSMOS 2441 4.2 01:06:22 10° NNE 01:11:15 77° WNW 01:12:59 40° SSW
Cosmos 2333 Rocket 3.6 01:08:53 17° NW 01:12:32 32° NNE 01:17:37 10° ENE
Cosmos 2084 Rocket 3.6 01:12:04 53° NW 01:12:49 64° N 01:17:12 10° E
COSMO-SKYMED 1 3.1 01:14:45 10° SE 01:19:03 61° ENE 01:23:21 10° NNW
Cosmos 1626 3.9 01:15:57 10° SSE 01:19:17 32° E 01:22:38 10° NNE
CZ-4B R/B 4.3 01:17:17 10° N 01:21:57 33° NW 01:22:23 32° WNW
Meteor 1-21 4.3 01:21:49 36° SW 01:23:54 57° WNW 01:29:28 10° NNE
Cosmos 2237 Rocket 3.6 01:21:23 19° NW 01:24:20 29° N 01:29:13 10° ENE
Cosmos 1697 Rocket 2.8 01:22:07 30° WNW 01:24:41 51° WSW 01:30:07 10° SSE
COSMOS 2406 4.4 01:19:52 10° S 01:25:09 42° ESE 01:30:27 10° NE
Cosmos 1707 3.0 01:28:15 47° NW 01:28:15 47° NW 01:31:44 10° N
Cosmos 1992 Rocket 3.9 01:27:17 13° NW 01:31:57 65° WSW 01:37:07 10° SSE
Cosmos 2058 Rocket 3.7 01:28:46 10° N 01:33:16 60° ENE 01:37:43 10° SSE
Cosmos 2360 Rocket 3.1 01:29:50 12° NW 01:34:48 44° NNE 01:40:11 10° ESE
Cosmos 220 Rocket 4.1 01:33:10 33° NW 01:34:52 54° WSW 01:39:12 10° S
Cosmos 1943 3.8 01:36:03 30° WNW 01:38:09 42° NNW 01:43:33 10° NE
Cosmos 1536 Rocket 3.5 01:34:41 13° SSW 01:38:37 79° WNW 01:43:09 10° NNE
FENGYUN 3A 4.3 01:33:46 10° NNE 01:39:11 60° ESE 01:44:34 10° S
NOSS 3-2 (C) 4.1 01:34:17 13° SSW 01:39:28 54° SE 01:46:12 10° ENE
MSX 3.9 01:34:37 10° NNE 01:40:13 55° WNW 01:43:48 22° SW
Cosmos 1455 4.1 01:38:22 10° N 01:41:53 32° ENE 01:45:24 10° SE
Intercosmos 24 3.8 01:39:18 10° NNW 01:43:57 64° W 01:47:35 10° S
CBERS 1 LM4 rocket 4.4 01:39:18 10° NNE 01:44:24 85° ESE 01:49:16 10° SSW
Cosmos 1980 Rocket 2.2 01:41:58 15° NW 01:46:31 59° WSW 01:51:59 10° SSE
ADEOS II 3.3 01:43:31 10° N 01:47:37 23° NW 01:48:31 22° WNW
SL-16 R/B 3.5 01:46:11 19° NW 01:49:14 29° N 01:54:12 10° NE
Celestis-02/Orion 38 4.4 01:45:03 10° SE 01:50:07 78° SW 01:55:16 10° NW
Cosmos 1400 Rocket 2.6 01:49:15 10° NNW 01:53:17 77° WSW 01:57:12 10° S
ARIANE 5 R/B 3.3 01:50:03 10° N 01:54:24 31° NW 01:55:49 26° W
CENTAUR R/B 3.1 01:48:26 11° SW 01:54:32 62° SE 02:02:00 10° ENE
PSLV R/B 3.5 01:51:18 10° NNE 01:55:31 60° WNW 01:59:15 13° SW
Cosmos 1867 3.8 01:54:23 26° W 01:57:23 59° NNW 02:02:49 10° ENE
CZ-4B R/B 2.3 01:54:44 10° SSW 01:57:10 30° SW 01:57:10 30° SW
Resurs 1-4 Rocket 3.9 01:55:49 10° N 01:58:40 15° NNW 01:59:56 14° NW
Cosmos 2219 Rocket 3.4 01:57:01 10° NW 02:02:14 38° NNE 02:07:30 10° E
DNEPR-1 R/B 4.0 02:01:16 18° WNW 02:05:38 83° SW 02:10:28 10° SE
CZ-2C R/B 4.0 02:01:16 10° SE 02:06:30 42° ENE 02:11:45 10° N
MOS 1 Rocket 3.8 02:02:20 10° SE 02:06:31 54° ENE 02:10:46 10° N
SKYMED 2 3.5 02:02:51 10° S 02:07:10 61° WSW 02:11:30 10° NNW
CZ-2D R/B 4.0 02:08:21 10° N 02:10:42 13° NNW 02:12:13 12° NW
Cosmos 1975 Rocket 4.3 02:10:49 22° WNW 02:11:25 22° NW 02:14:52 10° N
Cosmos 2278 4.1 02:07:24 11° NW 02:12:28 42° WSW 02:17:44 10° S
ALOS 2.2 02:10:50 10° NNE 02:15:32 82° WNW 02:20:13 10° SSW
Cosmos 1092 Rocket 4.1 02:09:51 10° S 02:16:03 83° E 02:22:21 10° NNE
Aureole 3 3.3 02:13:22 10° NNW 02:16:56 61° W 02:21:19 10° S
Cosmos 2322 Rocket 2.3 02:11:24 10° NW 02:17:09 84° NE 02:22:51 10° SE
Cosmos 192 4.5 02:14:07 10° NNW 02:19:08 78° NE 02:24:07 10° SE
KORONAS-FOTON 4.2 02:16:38 10° SW 02:20:23 42° WNW 02:24:07 10° N
Cosmos 1812 Rocket 4.3 02:16:22 10° N 02:20:40 55° ENE 02:24:56 10° SSE
CZ-2C R/B 2.8 02:17:03 10° N 02:21:55 45° WNW 02:26:36 10° SW
Cosmos 1315 Rocket 2.9 02:18:06 10° NNW 02:22:13 85° ENE 02:26:22 10° SSE
CZ-2C R/B 4.1 02:19:14 10° N 02:22:32 24° NW 02:23:59 20° W
Nadezhda 4 Rocket 3.9 02:16:32 10° SSW 02:22:37 68° WNW 02:28:49 10° NNE
SAR-Lupe-4 4.4 02:19:28 10° SSW 02:22:38 28° W 02:25:48 10° NW
ADEOS 3.5 02:17:54 10° NNE 02:23:09 77° WNW 02:28:23 10° SSW
SL-14 R/B 3.2 02:21:33 10° SSW 02:25:33 78° WNW 02:29:37 10° NNE
USA 238 DEB 3.8 02:19:35 11° WSW 02:26:07 86° SSE 02:33:17 10° ENE
PAYLOAD A 4.4 02:21:29 10° N 02:26:08 41° WNW 02:30:56 10° SW
USA 238 3.8 02:19:40 11° WSW 02:26:13 86° SSE 02:33:23 10° ENE
Cosmos 1726 Rocket 4.0 02:22:14 10° NNW 02:26:26 41° W 02:30:37 10° SSW
Cosmos 1300 3.3 02:24:36 10° NNW 02:28:05 33° W 02:31:33 10° SSW
S3M 4.2 02:21:59 10° NNW 02:28:17 79° ENE 02:34:38 10° SSE
NOSS 3-2 (A) 3.6 02:24:30 12° WSW 02:30:16 89° NNW 02:37:33 10° ENE
Meteor 2-13 Rocket 4.4 02:26:16 10° SSW 02:32:27 78° WNW 02:38:37 10° NNE
Cosmos 1833 Rocket 2.9 02:26:48 10° SSW 02:32:27 77° SE 02:38:08 10° NE
Cosmos 2322 4.4 02:26:53 10° NW 02:32:29 53° NE 02:38:03 10° ESE
IDEFIX/ARIANE 42P 3.8 02:28:55 10° N 02:32:57 23° NW 02:35:46 15° W
PSLV R/B 4.4 02:31:07 10° SSW 02:35:06 39° W 02:39:06 10° NNW
GP-B 4.4 02:33:19 15° W 02:35:11 19° WNW 02:38:25 10° NNW
USA 234 3.5 02:28:43 10° ESE 02:35:14 67° S 02:41:15 13° W
Lacrosse 4 Rocket 1.3 02:32:24 10° SW 02:36:29 87° SE 02:40:35 10° NE
Meteor 2-10 Rocket 3.4 02:31:52 10° NNW 02:36:53 70° WSW 02:41:53 10° S
Meteor 1-24 Rocket 3.8 02:31:29 10° SSW 02:37:12 85° WNW 02:43:10 10° NNE
Cosmos 1484 Rocket 2.9 02:33:36 10° N 02:37:26 50° WNW 02:41:10 10° SW
ISS -0.8 02:37:35 10° S 02:38:50 12° SSE 02:40:06 10° SE
Cosmos 2228 3.9 02:35:58 10° NNW 02:39:37 26° W 02:43:16 10° SW
Cosmos 1025 Rocket 4.1 02:37:27 13° WSW 02:40:33 25° WNW 02:44:15 10° N
ATLAS 3B R/B 3.6 02:34:23 10° SSW 02:40:40 49° SE 02:47:07 10° ENE
Cosmos 1606 Rocket 4.5 02:37:28 10° NNW 02:41:16 28° W 02:45:03 10° SW
Cosmos 1269 Rocket 4.1 02:36:50 10° SW 02:42:06 58° NW 02:47:23 10° NNE
Cosmos 1607 4.1 02:35:48 11° WNW 02:42:07 84° SW 02:48:38 10° SE
Cosmos 1689 Rocket 3.3 02:39:52 10° SSW 02:42:15 22° W 02:44:38 10° NW
METEOR-M 4.1 02:37:23 10° NNE 02:42:44 69° WNW 02:48:02 10° SSW
CZ-4B R/B 2.8 02:39:42 10° NNE 02:43:37 87° WNW 02:47:42 10° SSW
USA 290 3.1 02:40:52 10° SSW 02:44:02 53° ESE 02:47:14 10° NE
Cosmos 1674 3.7 02:41:58 10° WSW 02:45:15 26° WNW 02:48:32 10° N
Meteor 2-1 Rocket 4.2 02:41:11 10° NNW 02:46:48 71° WSW 02:52:29 10° S
H-2A R/B 3.4 02:43:56 10° NNE 02:47:41 59° ESE 02:51:29 10° S
Cosmos 468 Rocket 4.5 02:45:03 10° NNW 02:50:10 62° NE 02:55:16 10° SE
Cosmos 2082 Rocket 2.6 02:45:16 10° SSW 02:50:49 67° ESE 02:56:26 10° NE
SL-16 R/B 2.3 02:46:06 10° NW 02:51:42 60° WSW 02:57:16 10° SSE
NOSS 5 (C) 4.4 02:48:47 10° SW 02:52:17 75° SSE 02:55:17 10° ENE
Cosmos 2084 Rocket 3.5 02:48:35 12° WNW 02:52:33 87° SSW 02:57:01 10° ESE
Cosmos 921 Rocket 3.8 02:49:19 10° NNW 02:53:45 55° NE 02:58:12 10° SE
Cosmos 1626 2.6 02:51:03 10° SW 02:54:31 37° WNW 02:58:00 10° N
COSMO-SKYMED 1 3.5 02:51:50 10° SSW 02:55:33 27° W 02:59:18 10° NNW
COSMOS 2428 3.4 02:50:21 10° NW 02:56:00 53° NE 03:01:37 10° ESE
ADEOS Rocket 4.3 02:54:47 10° WSW 02:57:29 14° WNW 03:00:14 10° NW
Cosmos 2333 Rocket 2.7 02:52:11 10° NW 02:57:50 60° NE 03:03:26 10° ESE
Cosmos 1553 Rocket 4.0 02:52:51 10° NNW 02:58:54 58° W 03:04:51 10° S
Meteor 2-5 Rocket 3.9 02:54:47 10° SW 03:00:26 55° WNW 03:06:14 10° NNE
Meteor 1-31 Rocket 3.2 02:57:38 10° N 03:01:22 41° WNW 03:05:06 10° SW
Cosmos 1763 Rocket 3.8 02:59:00 10° NNW 03:04:07 68° NE 03:09:11 10° SE
Cosmos 2344 3.8 02:57:59 10° WSW 03:05:36 82° NNW 03:15:07 10° ENE
Lacrosse 5 rocket 3.0 03:03:08 10° SW 03:06:25 29° SSE 03:09:51 10° E
Cosmos 1697 Rocket 4.3 03:04:43 10° WNW 03:07:26 14° W 03:10:09 10° SW
Meteor PRIRODA 3.7 03:03:58 10° N 03:07:35 57° WNW 03:11:10 10° SSW
Cosmos 1428 Rocket 4.5 03:02:53 10° SSW 03:09:05 67° WNW 03:15:16 10° NNE
COSMOS 2406 3.3 03:03:40 10° SW 03:09:19 65° NW 03:15:00 10° NE
Cosmos 2237 Rocket 3.2 03:04:28 10° NW 03:09:47 40° NNE 03:15:06 10° E
deb Chang Zheng 4 4.1 03:06:34 10° N 03:10:29 37° WNW 03:14:25 10° SW
Cosmos 2058 Rocket 4.0 03:07:11 10° NNW 03:11:00 28° W 03:14:49 10° SW
PSLV R/B 4.0 03:09:08 10° NNE 03:13:16 89° NW 03:17:25 10° SSW
Spot 2 4.2 03:08:55 10° NNE 03:13:18 89° ESE 03:17:56 10° SSW
Okean 1-7 Rocket 3.7 03:09:34 10° SSW 03:14:05 62° WNW 03:18:35 10° N
Cosmos 2292 Rocket 3.6 03:11:38 10° S 03:14:56 68° E 03:19:07 10° NNE
deb Kosmos-1763 4.1 03:13:43 10° SW 03:17:15 56° NW 03:20:49 10° NNE
ARGOS Delta rocket 4.4 03:12:34 10° N 03:17:35 45° WNW 03:22:45 10° SW
Cosmos 1455 2.6 03:13:57 10° NNW 03:17:37 41° W 03:21:16 10° SSW
Cosmos 2360 Rocket 2.2 03:13:34 10° NW 03:19:12 72° SW 03:24:48 10° SSE
FENGYUN 3A 4.2 03:14:21 10° N 03:19:23 39° NW 03:24:24 10° WSW
Cosmos 2026 Rocket 4.1 03:14:00 10° SSW 03:20:18 58° WNW 03:26:37 10° N
Cosmos 1703 4.0 03:17:03 10° S 03:20:52 58° E 03:24:44 10° NNE
